Showing default

KUIPER-00524, 68892

Orbit data source: Space-Track

KUIPER-00524, 68892 is an American payload satellite in LEO that was launched on Tue, 28 Apr 2026 UTC launched from the Air Force Eastern Test Range (AFETR). Payload-class satellites include a variety of spacecraft equipped with specific instruments for various scientific and technological missions. These include communications satellites like Starlink; space stations such as the ISS; scientific satellites like the Hubble; Earth observation satellites from companies like Planet Labs, Umbra, and HawkEye 360; GPS; miniature CubeSats for education and research; and military/defense satellites.

Loading next visibility...
Identifier
68892, 2026-095AE
Orbit
LEO
Country
Flag of USUS
Related business
None
Manufacturer
Unknown
Mission
Operational spacecraft
Bus & Motor
Unknown
Mass
Unknown
Launch date (UTC)
2026-04-28 (4 days ago)
Launch vehicle
Unknown
Launch site
Air Force Eastern Test Range (AFETR)
Object type
Payload
Rocket body
Debris
Shape & HBR
Unknown
Radar Cross Section
RCS unknown

Expand to show TLE details & history
Last TLE update: 8 hours ago

TLE from 8 hours ago
0 KUIPER-00524
1 68892U 26095AE  26122.16670139  .00002625  00000-0  79616-4 0  9999
2 68892  51.8809 104.8868 0002817 100.5579 112.2501 15.37948376  1709
Epoch: 2026-05-02T04:00Z
TLE epoch observation values (Epoch: 2026-05-02T04:00:03.000Z)
Latitude
-25.44792°
Longitude
26.58221°
Altitude
460.202 km
Speed
7.636 km/s
True Right ascension
20h 26m 43s
True Declination
-25° 18' 32"
Sunlit
Object was in daylight at epoch
Visualization orbit readout
Latitude
Unknown
Longitude
Unknown
Altitude
Unknown
Speed
Unknown
Apparent Right ascension
Unknown
Apparent Declination
Unknown
Sunlit
N/A
Visualization observer readout
Local Sidereal Time
19:28:43
Azimuth
Unknown
Elevation
Unknown
Doppler factor
Unknown
Orbital elements
Apogee altitude
454.567 km
Perigee altitude
450.719 km
Semi-major axis
6,830.78 km
Eccentricity
0.00028
Inclination
51.8809°
RAAN
104.8868°
Arg. of periapsis
100.5579°
True anomaly
112.27997°
Mean anomaly
112.2501°
Eccentric anomaly
112.26504°
Mean motion
3.84448 °/min
Orbital period
93.64 mins
BSTAR
0.000079616
Loading maneuver chart data...
Computing Atmospheric mass density...
Loading historical data...
Loading historical data...
Loading historical data...
Loading historical data...
Loading historical data...
Loading historical data...
Loading historical data...

Documentation

Showing up to 5 results
|